Flight Track Log - Related Links

Times and Time Zones

All times are in EDT time to prevent confusion due to time zone crossing. See the N508QS flight status page for this flight to view local times or setup timezone preferences in your user account.

Time Position Orientation Groundspeed Altitude Reporting Facility
EDT Latitude Longitude Course Direction KTS MPH feet Rate Location/Type
Sat 01:07:08 PM 33.9339 -118.4319 265° West 211 243 1,800  Level Los Angeles Center
Sat 01:08:10 PM 33.9275 -118.5150 265° West 239 275 5,500 3,968 Climbing Los Angeles Center
Sat 01:09:12 PM 33.9228 -118.6069 266° West 271 312 10,000 3,871 Climbing Los Angeles Center
Sat 01:10:14 PM 33.9156 -118.7169 266° West 311 358 13,500 2,855 Climbing Los Angeles Center
Sat 01:11:16 PM 33.9075 -118.8458 266° West 380 437 15,900 2,710 Climbing Los Angeles Center
Sat 01:12:18 PM 33.9206 -118.9767 277° West 408 470 19,100 3,072 Climbing Los Angeles Center
Sat 01:13:21 PM 33.9986 -119.0853 311° West 433 498 22,300 2,903 Climbing Los Angeles Center
Sat 01:14:22 PM 34.0819 -119.1975 312° West 446 513 25,100 2,488 Climbing Los Angeles Center
Sat 01:15:24 PM 34.1514 -119.2914 312° West 459 528 27,400 2,613 Climbing Los Angeles Center
Sat 01:16:26 PM 34.2578 -119.4336 312° West 475 547 30,500 3,145 Climbing Los Angeles Center
Sat 01:17:28 PM 34.3628 -119.5750 312° West 470 541 33,900 1,694 Climbing Los Angeles Center
Sat 01:18:30 PM 34.4492 -119.6936 311° West 470 541 34,000 48 Climbing Los Angeles Center
Sat 01:19:32 PM 34.5428 -119.8039 316° Northwest 471 542 34,000  Level Los Angeles Center
Sat 01:20:34 PM 34.6508 -119.8872 328° Northwest 487 560 34,000  Level Los Angeles Center
Sat 01:21:36 PM 34.7847 -119.9978 326° Northwest 487 560 34,000  Level Los Angeles Center
Sat 01:22:39 PM 34.8961 -120.0908 326° Northwest 486 559 34,000  Level Los Angeles Center
Sat 01:23:41 PM 35.0022 -120.1783 326° Northwest 487 560 34,000  Level Los Angeles Center
Sat 01:24:43 PM 35.1117 -120.2703 326° Northwest 483 556 34,000  Level Los Angeles Center
Sat 01:25:45 PM 35.2450 -120.3817 326° Northwest 486 559 34,000  Level Los Angeles Center
Sat 01:26:47 PM 35.3553 -120.4758 325° Northwest 488 562 34,000  Level Los Angeles Center
Sat 01:27:49 PM 35.4664 -120.5711 325° Northwest 489 563 34,000  Level Los Angeles Center
Sat 01:28:51 PM 35.5778 -120.6647 326° Northwest 487 560 34,000  Level Los Angeles Center
Sat 01:29:26 PM 35.6386 -120.7178 325° Northwest 479 551 34,000  Level Oakland Center
Sat 01:30:27 PM 35.7500 -120.8114 326° Northwest 482 555 34,000  Level Oakland Center
Sat 01:31:28 PM 35.8819 -120.9278 324° Northwest 485 558 34,000  Level Oakland Center
Sat 01:32:30 PM 35.9936 -121.0231 325° Northwest 486 559 34,000  Level Oakland Center
Sat 01:33:31 PM 36.1047 -121.1153 326° Northwest 474 545 34,000  Level Oakland Center
Sat 01:34:33 PM 36.2136 -121.2111 325° Northwest 474 545 34,000  Level Oakland Center
Sat 01:35:34 PM 36.3228 -121.3050 325° Northwest 475 547 34,000 -98 Level Oakland Center
Sat 01:36:36 PM 36.4311 -121.4008 325° Northwest 475 547 33,800 -1,122 Descending Oakland Center
Sat 01:37:37 PM 36.5403 -121.4950 325° Northwest 473 544 31,700 -2,049 Descending Oakland Center
Sat 01:38:39 PM 36.6506 -121.5900 325° Northwest 479 551 29,600 -1,805 Descending Oakland Center
Sat 01:39:40 PM 36.7672 -121.6692 331° Northwest 473 544 28,000 -1,299 Descending Oakland Center
Sat 01:40:16 PM 36.8667 -121.7167 339° North 476 548 27,500 -1,065 Descending Northern Cal TRACON
Sat 01:40:42 PM 36.9089 -121.7447 332° Northwest 471 542 26,900 -2,276 Descending Oakland Center
Sat 01:41:43 PM 37.0239 -121.8125 335° Northwest 457 526 24,200 -2,683 Descending Oakland Center
Sat 01:42:45 PM 37.1344 -121.8744 336° Northwest 441 507 21,400 -2,710 Descending Oakland Center
Sat 01:43:47 PM 37.2400 -121.9361 335° Northwest 425 489 18,600 -2,634 Descending Oakland Center
Sat 01:44:48 PM 37.3425 -121.9964 335° Northwest 412 474 16,000 -1,880 Descending Oakland Center
Sat 01:45:10 PM 37.3833 -122.0333 324° Northwest 374 430 16,000  Level Northern Cal TRACON
Sat 01:46:10 PM 37.4833 -122.0833 338° Northwest 369 425 16,000 -368 Level Northern Cal TRACON
Sat 01:47:04 PM 37.5667 -122.1333 335° Northwest 366 421 15,300 -1,579 Descending Northern Cal TRACON
Sat 01:48:04 PM 37.6667 -122.1833 338° Northwest 332 382 13,000 -1,256 Descending Northern Cal TRACON
Sat 01:49:56 PM 37.7806 -122.2972 322° Northwest 289 333 11,700 -897 Descending Oakland Center
Sat 01:50:58 PM 37.8394 -122.3567 321° Northwest 277 319 10,400 -1,306 Descending Oakland Center
Sat 01:52:00 PM 37.9114 -122.3711 351° North 269 310 9,000 -1,512 Descending Oakland Center
Sat 01:53:01 PM 37.9958 -122.3761 357° North 259 298 7,300 -1,561 Descending Oakland Center
Sat 01:54:03 PM 38.0656 -122.3803 357° North 254 292 5,800 -1,113 Descending Oakland Center
Sat 01:55:05 PM 38.1336 -122.3844 357° North 248 285 5,000 -435 Descending Oakland Center
Sat 01:56:07 PM 38.1964 -122.3886 357° North 234 269 4,900 -98 Descending Oakland Center
Sat 01:57:08 PM 38.2547 -122.3797 North 215 247 4,800 -439 Descending Oakland Center
Sat 01:58:10 PM 38.3058 -122.3564 20° North 195 224 4,000 -1,161 Descending Oakland Center
Sat 01:59:12 PM 38.3250 -122.3000 67° East 187 215 2,400 -1,210 Descending Oakland Center
Sat 02:00:14 PM 38.2881 -122.2650 143° Southeast 174 200 1,500 -878 Descending Oakland Center
Sat 02:01:15 PM 38.2481 -122.2656 181° South 153 176 600 -885 Descending Oakland Center

Login

Don't have an account? Register now (free) for customized features, flight alerts, and more!